Location: Unspecified
(43.4354°N, 0.0000°E)
Time: 20:50:52
(UTC+00:00)

Courier 1B - Pass Details

Date: 20 June 2019
Orbit: 963 x 1209 km, 28.3° (Epoch: 16 July)

Event Time Altitude Azimuth Distance (km) Brightness Sun altitude
Rises 18:21:57 0° 214° (SW) 3,860 10.8 12.4°
Reaches altitude 10° 18:25:53 10° 194° (SSW) 2,958 10.0 11.7°
Maximum altitude 18:29:58 16° 159° (SSE) 2,598 9.4 11.0°
Drops below altitude 10° 18:34:09 10° 125° (SE) 3,059 9.5 10.3°
Sets 18:38:19 0° 105° (ESE) 4,061 10.1 9.6°
